N3EYQ Weather Reports


Display with metric or nautical units.
time (UTC)temp
F
wind
direction
speed
MPH
gust
MPH
rain 1hr
in
rain 24hr
in
rain mn
in
humidity
%
barometer
mb
20260510170235 72 0 0.0 0.0 0.00 0.00 0.00 52 1012.0
20260510165235 73 0 0.0 0.0 0.00 0.00 0.00 51 1012.0
20260510164235 72 0 0.0 0.0 0.00 0.00 0.00 52 1012.0
20260510163234 72 0 0.0 0.0 0.00 0.00 0.00 52 1012.0
20260510162235 71 0 0.0 0.0 0.00 0.00 0.00 54 1012.0
20260510161235 71 0 0.0 0.0 0.00 0.00 0.00 55 1012.3
20260510160235 71 0 0.0 0.0 0.00 0.00 0.00 57 1012.3
20260510155234 71 0 0.0 0.0 0.00 0.00 0.00 57 1012.3
20260510154234 70 0 0.0 0.0 0.00 0.00 0.00 57 1012.3
20260510153234 69 0 0.0 0.0 0.00 0.00 0.00 64 1012.3
20260510152234 69 0 0.0 0.0 0.00 0.00 0.00 64 1012.3
20260510151233 68 0 0.0 0.0 0.00 0.00 0.00 66 1012.3
20260510150234 67 0 0.0 0.0 0.00 0.00 0.00 65 1012.3
20260510145233 67 0 0.0 0.0 0.00 0.00 0.00 69 1012.0
20260510144233 66 0 0.0 0.0 0.00 0.00 0.00 73 1012.3
20260510143233 65 0 0.0 0.0 0.00 0.00 0.00 74 1012.0
20260510142234 63 0 0.0 0.0 0.00 0.00 0.00 76 1012.0
20260510141234 62 0 0.0 0.0 0.00 0.00 0.00 77 1012.0
20260510140233 61 0 0.0 0.0 0.00 0.00 0.00 79 1012.0
20260510135232 60 0 0.0 0.0 0.00 0.00 0.00 80 1012.3
20260510134233 59 0 0.0 0.0 0.00 0.00 0.00 82 1012.3
20260510133232 59 0 0.0 0.0 0.00 0.00 0.00 82 1012.3
20260510132233 59 0 0.0 0.0 0.00 0.00 0.00 82 1012.3
20260510131232 58 0 0.0 0.0 0.00 0.00 0.00 83 1012.7
20260510130232 57 0 0.0 0.0 0.00 0.00 0.00 86 1012.7
20260510125231 56 0 0.0 0.0 0.00 0.00 0.00 86 1012.7
20260510124231 55 0 0.0 0.0 0.00 0.00 0.00 87 1012.7
20260510123251 55 0 0.0 0.0 0.00 0.00 0.00 88 1012.3
20260510122231 54 0 0.0 0.0 0.00 0.00 0.00 89 1012.3
20260510121232 54 0 0.0 0.0 0.00 0.00 0.00 89 1012.3
20260510120231 53 0 0.0 0.0 0.00 0.00 0.00 90 1012.3
20260510115231 52 0 0.0 0.0 0.00 0.00 0.00 89 1012.3
20260510114230 52 0 0.0 0.0 0.00 0.00 0.00 89 1012.0
20260510113231 51 0 0.0 0.0 0.00 0.00 0.00 89 1012.0
20260510112230 51 0 0.0 0.0 0.00 0.00 0.00 90 1012.0
20260510111230 51 0 0.0 0.0 0.00 0.00 0.00 90 1012.0
20260510110230 51 0 0.0 0.0 0.00 0.00 0.00 90 1012.0
20260510105230 51 0 0.0 0.0 0.00 0.00 0.00 89 1012.0
20260510104230 51 0 0.0 0.0 0.00 0.00 0.00 89 1011.6
20260510103230 51 0 0.0 0.0 0.00 0.00 0.00 89 1011.6
20260510102230 51 0 0.0 0.0 0.00 0.00 0.00 89 1011.6
20260510101230 51 0 0.0 0.0 0.00 0.00 0.00 89 1011.6
20260510100229 51 0 0.0 0.0 0.00 0.00 0.00 89 1011.6
20260510095229 51 0 0.0 0.0 0.00 0.00 0.00 89 1011.6
20260510094229 51 0 0.0 0.0 0.00 0.00 0.00 89 1011.3
20260510093230 51 0 0.0 0.0 0.00 0.00 0.00 90 1011.3
20260510092249 51 0 0.0 0.0 0.00 0.00 0.00 89 1011.0
20260510091229 51 0 0.0 0.0 0.00 0.00 0.00 90 1011.0
20260510090230 52 0 0.0 0.0 0.00 0.00 0.00 89 1010.6
20260510085228 51 0 0.0 0.0 0.00 0.00 0.00 90 1010.6
20260510084319 51 0 0.0 0.0 0.00 0.00 0.00 89 1010.6
20260510083228 51 0 0.0 0.0 0.00 0.00 0.00 90 1010.6
20260510082248 51 0 0.0 0.0 0.00 0.00 0.00 90 1011.0
20260510081228 51 0 0.0 0.0 0.00 0.00 0.00 89 1010.6
20260510080227 51 0 0.0 0.0 0.00 0.00 0.00 90 1011.0
20260510075247 51 0 0.0 0.0 0.00 0.00 0.00 90 1011.0
20260510074227 51 0 0.0 0.0 0.00 0.00 0.00 90 1011.3
20260510073228 51 0 0.0 0.0 0.00 0.00 0.00 90 1011.3
20260510072227 51 0 0.0 0.0 0.00 0.00 0.00 90 1011.0
20260510071227 51 0 0.0 0.0 0.00 0.00 0.00 90 1011.3
20260510070227 52 0 0.0 0.0 0.00 0.00 0.00 90 1011.3
20260510065247 52 0 0.0 0.0 0.00 0.00 0.00 90 1011.6
20260510064228 52 0 0.0 0.0 0.00 0.00 0.00 89 1011.6
20260510063226 52 0 0.0 0.0 0.00 0.00 0.00 89 1011.6
20260510062226 51 0 0.0 0.0 0.00 0.00 0.00 89 1011.3
20260510061226 51 0 0.0 0.0 0.00 0.00 0.00 89 1011.0
20260510060226 51 0 0.0 0.0 0.00 0.00 0.00 89 1011.3
20260510055226 51 0 0.0 0.0 0.00 0.00 0.00 89 1011.0
20260510054227 51 0 0.0 0.0 0.00 0.00 0.00 89 1011.0
20260510053225 50 0 0.0 0.0 0.00 0.00 0.00 88 1011.0
20260510052227 50 0 0.0 0.0 0.00 0.00 0.00 88 1011.3
20260510051226 50 0 0.0 0.0 0.00 0.00 0.00 89 1011.3
20260510050245 50 0 0.0 0.0 0.00 0.00 0.00 89 1011.3
20260510045226 49 0 0.0 0.0 0.00 0.00 0.00 88 1011.0
20260510044245 49 0 0.0 0.0 0.00 0.00 0.00 88 1011.0
20260510043225 49 0 0.0 0.0 0.00 0.00 0.00 88 1011.0
20260510042225 49 0 0.0 0.0 0.00 0.00 0.00 88 1011.0
20260510041224 49 0 0.0 0.0 0.00 0.00 0.00 88 1011.0
20260510040226 49 0 0.0 0.0 0.00 0.00 0.00 88 1011.0
20260510035224 49 0 0.0 0.0 0.00 0.00 0.00 88 1011.0
20260510034225 50 0 0.0 0.0 0.00 0.00 0.00 88 1011.0
20260510033224 50 0 0.0 0.0 0.00 0.00 0.00 88 1011.0
20260510032224 50 0 0.0 0.0 0.00 0.00 0.00 88 1011.0
20260510031314 50 0 0.0 0.0 0.00 0.00 0.00 88 1011.0
20260510030224 50 0 0.0 0.0 0.00 0.00 0.00 88 1011.3
20260510025223 50 0 0.0 0.0 0.00 0.00 0.00 88 1011.0
20260510024223 50 0 0.0 0.0 0.00 0.00 0.00 88 1011.0
20260510023223 50 0 0.0 0.0 0.00 0.00 0.00 87 1011.0
20260510022223 51 0 0.0 0.0 0.00 0.00 0.00 88 1011.0
20260510021223 52 0 0.0 0.0 0.00 0.00 0.00 88 1010.6
20260510020223 52 0 0.0 0.0 0.00 0.00 0.00 88 1010.6
20260510015223 52 0 0.0 0.0 0.00 0.00 0.00 88 1011.0
20260510014223 52 0 0.0 0.0 0.00 0.00 0.00 88 1011.0
20260510013222 52 0 0.0 0.0 0.00 0.00 0.00 88 1011.0
20260510012222 52 0 0.0 0.0 0.00 0.00 0.00 88 1010.6
20260510011222 52 0 0.0 0.0 0.00 0.00 0.00 88 1010.6
20260510010222 53 0 0.0 0.0 0.00 0.00 0.00 88 1010.3
20260510005222 53 0 0.0 0.0 0.00 0.00 0.00 87 1010.6
20260510004222 53 0 0.0 0.0 0.00 0.00 0.00 87 1010.3
20260510003221 54 0 0.0 0.0 0.00 0.00 0.00 87 1010.3
20260510002222 54 0 0.0 0.0 0.00 0.00 0.00 87 1010.0
20260510001222 54 0 0.0 0.0 0.00 0.00 0.00 87 1010.0
20260510000222 54 0 0.0 0.0 0.00 0.00 0.00 87 1010.0
20260509235221 54 0 0.0 0.0 0.00 0.00 0.00 87 1009.6
20260509234221 55 0 0.0 0.0 0.00 0.00 0.00 87 1009.6
20260509233221 55 0 0.0 0.0 0.00 0.00 0.00 86 1009.3
20260509232222 55 0 0.0 0.0 0.00 0.00 0.00 86 1009.3
20260509231221 55 0 0.0 0.0 0.00 0.00 0.00 86 1009.6
20260509230220 56 0 0.0 0.0 0.00 0.00 0.00 86 1009.6
20260509225221 56 0 0.0 0.0 0.00 0.00 0.00 87 1009.6
20260509224220 55 0 0.0 0.0 0.00 0.00 0.00 86 1009.6
20260509223220 55 0 0.0 0.0 0.00 0.00 0.00 87 1009.6
20260509222220 55 0 0.0 0.0 0.00 0.00 0.00 87 1009.6
20260509221220 55 0 0.0 0.0 0.00 0.00 0.00 87 1009.6
20260509220220 55 0 0.0 0.0 0.00 0.00 0.00 87 1009.6
20260509215220 55 0 0.0 0.0 0.00 0.00 0.00 87 1009.6
20260509214220 56 0 0.0 0.0 0.00 0.00 0.00 87 1009.6
20260509213239 55 0 0.0 0.0 0.00 0.00 0.00 87 1009.6
20260509212219 55 0 0.0 0.0 0.00 0.00 0.00 87 1010.0
20260509211220 55 0 0.0 0.0 0.00 0.00 0.00 87 1010.0
20260509210219 55 0 0.0 0.0 0.00 0.00 0.00 87 1009.6
20260509205220 55 0 0.0 0.0 0.00 0.00 0.00 87 1010.0
20260509204219 54 0 0.0 0.0 0.00 0.00 0.00 87 1010.0
20260509203218 54 0 0.0 0.0 0.00 0.00 0.00 87 1010.3
20260509202218 54 0 0.0 0.0 0.00 0.00 0.00 87 1010.3
20260509201218 54 0 0.0 0.0 0.00 0.00 0.00 87 1010.6
20260509200218 54 0 0.0 0.0 0.00 0.00 0.00 88 1010.6
20260509195219 54 0 0.0 0.0 0.00 0.00 0.00 87 1011.0
20260509194238 54 0 0.0 0.0 0.00 0.00 0.00 88 1011.0
20260509193218 54 0 0.0 0.0 0.00 0.00 0.00 87 1011.0
20260509192237 54 0 0.0 0.0 0.00 0.00 0.00 87 1011.3
20260509191218 54 0 0.0 0.0 0.00 0.00 0.00 87 1011.3
20260509190218 53 0 0.0 0.0 0.00 0.00 0.00 87 1011.6
20260509185217 53 0 0.0 0.0 0.00 0.00 0.00 88 1011.6
20260509184217 53 0 0.0 0.0 0.00 0.00 0.00 88 1011.6
20260509183237 52 0 0.0 0.0 0.00 0.00 0.00 86 1011.6
20260509182217 52 0 0.0 0.0 0.00 0.00 0.00 86 1011.6
20260509181217 52 0 0.0 0.0 0.00 0.00 0.00 86 1011.6
20260509180216 52 0 0.0 0.0 0.00 0.00 0.00 86 1011.6
20260509175217 52 0 0.0 0.0 0.00 0.00 0.00 86 1011.6
20260509174216 52 0 0.0 0.0 0.00 0.00 0.00 86 1011.6
20260509173217 52 0 0.0 0.0 0.00 0.00 0.00 86 1011.6
20260509172217 51 0 0.0 0.0 0.00 0.00 0.00 87 1011.3
20260509171216 52 0 0.0 0.0 0.00 0.00 0.00 87 1011.6